Tracking 23099 objects as of 13-May-2021
HD Live streaming from Space Station
objects crossing your sky now

NINGXIA-1 1

Track NINGXIA-1 1 now!
10-day predictions


NORAD ID: 44779
Int'l Code: 2019-076A
Perigee: 887.8 km
Apogee: 902.4 km
Inclination: 45.0 °
Period: 102.7 minutes
Semi major axis: 7266 km
RCS: Unknown
Launch date: November 13, 2019
Source: People's Republic of China (PRC)
Launch site: Taiyaun Space Center, China (TSC)
aabbcc
Your satellite tracking list
Your tracking list is empty




NASA's NSSDC Master Catalog

Two Line Element Set (TLE):
1 44779U 19076A   21133.57325781 -.00000117  00000-0  84724-5 0  9992
2 44779  45.0069 211.6465 0010004 349.4285  10.6337 14.01688381 76780
Source of the keplerian elements: AFSPC